[[{"header":{"parameterUnit":"m.s-1","parameterCategory":1,"la1":30.2991,"la2":30.254,"lo1":-89.0895,"lo2":-89.0444,"dy":0.0017,"dx":0.0017,"nx":28,"ny":28,"refTime":"2023-10-26T21:00:00:Z","depth":0,"parameterNumber":2,"parameterNumberName":"U-component_of_WINDS"},"data":[0,0,0,0,0,0,0,0,0,0,0,0,0,0,0,0,0,0,0,0,0,0,0,0,0,0,0,0,0,0,0,0,0,0,0,0,0,0,0,0,0,0,0,0,0,0,0,0,0,0,0,0,0,0,0,0,0,0,-2.6465,-2.6466,0,-2.6512,-2.6513,-2.6513,-2.6495,-2.6494,-2.6493,-2.6492,-2.6539,-2.6541,-2.6544,0,0,0,0,0,0,0,0,0,0,0,0,0,-2.6362,-2.6364,-2.6465,-2.6466,-2.6466,-2.6512,-2.6513,-2.6513,-2.6495,-2.6494,-2.6492,-2.6491,-2.6539,-2.6541,-2.6544,0,0,0,0,0,0,0,0,0,0,0,0,0,-2.6408,-2.6365,-2.6465,-2.6463,-2.6463,-2.6512,-2.6513,-2.6513,-2.6495,-2.6494,-2.6492,-2.649,-2.6538,-2.6541,-2.6544,-2.6598,0,0,-2.6555,-2.6556,0,0,0,0,0,0,0,0,-2.6405,-2.6412,-2.6463,-2.6463,-2.6463,-2.6496,-2.6494,-2.6542,-2.6496,-2.6483,-2.6492,-2.649,-2.6526,-2.653,-2.6543,-2.66,-2.6602,-2.6555,-2.6557,-2.6559,-2.656,0,0,0,0,0,0,0,-2.6402,-2.6409,-2.6484,-2.6463,-2.6464,-2.646,-2.6465,-2.6503,-2.6513,-2.6484,-2.6483,-2.6489,-2.6526,-2.654,-2.6544,-2.6603,-2.6555,-2.6558,-2.656,-2.6561,-2.671,-2.6712,0,0,0,0,0,0,-2.6399,-2.6407,-2.6482,-2.6485,-2.643,-2.6463,-2.6469,-2.6487,-2.6513,-2.6515,-2.649,-2.6488,-2.6534,-2.654,-2.6545,-2.6611,-2.6559,-2.6562,-2.6564,-2.6708,-2.6711,-2.6713,0,0,0,0,0,0,-2.6396,-2.6405,-2.648,-2.6446,-2.6455,-2.6467,-2.6488,-2.6489,-2.6502,-2.6517,-2.6519,-2.6502,-2.6533,-2.6541,-2.6586,-2.6613,-2.6563,-2.6566,-2.6706,-2.6709,-2.6712,-2.6743,0,0,0,0,0,0,-2.6394,-2.6405,-2.6424,-2.6446,-2.6457,-2.6519,-2.6489,-2.6491,-2.6508,-2.6506,-2.6529,-2.6531,-2.6533,-2.6581,-2.6589,-2.6616,-2.6569,-2.6704,-2.6707,-2.6711,-2.6739,-2.6746,-2.6752,0,0,0,0,0,-2.639,-2.6431,-2.6426,-2.6435,-2.6482,-2.6521,-2.6527,-2.6528,-2.651,-2.6531,-2.6541,-2.653,-2.6609,-2.6586,-2.6595,-2.6623,-2.6702,-2.6706,-2.671,-2.6736,-2.6745,-2.6752,0,0,0,0,0,0,-2.6411,-2.6433,-2.6428,-2.6477,-2.6497,-2.6518,-2.6543,-2.6537,-2.6562,-2.6559,-2.6559,-2.6565,-2.6612,-2.6622,-2.6596,-2.6679,-2.6653,-2.6659,-2.6669,-2.6678,-2.6684,-2.668,-2.6572,0,0,0,0,0,-2.6421,-2.6451,-2.6469,-2.6511,-2.6521,-2.6531,-2.6548,-2.6547,-2.6568,-2.6577,-2.659,-2.6611,-2.6641,-2.666,-2.6688,-2.6742,-2.6747,-2.6766,-2.6773,-2.6778,-2.6783,-2.6814,-2.6823,-2.6727,-2.6727,-2.6727,0,0,-2.6442,-2.6459,-2.6477,-2.6515,-2.6531,-2.6562,-2.6538,-2.6571,-2.6595,-2.6582,-2.6625,-2.6636,-2.666,-2.671,-2.6733,-2.6721,-2.6812,-2.6783,-2.6787,-2.679,-2.682,-2.6829,-2.6837,-2.673,-2.6729,-2.6729,0,0,-2.6497,-2.6512,-2.6549,-2.6566,-2.6591,-2.6598,-2.6607,-2.6629,-2.6636,-2.668,-2.6672,-2.6701,-2.6751,-2.6769,-2.6785,-2.6851,-2.6842,-2.686,-2.6893,-2.6924,-2.6932,-2.6938,-2.6963,-2.6971,-2.6866,-2.6866,-2.6866,0,-2.6521,-2.6567,-2.6569,-2.6604,-2.6622,-2.6613,-2.6652,-2.6668,-2.6701,-2.6713,-2.6699,-2.6765,-2.678,-2.6835,-2.6852,-2.6865,-2.6876,-2.6857,-2.693,-2.6937,-2.6943,-2.6967,-2.6976,-2.6868,-2.6868,-2.6867,-2.6867,0,-2.6595,-2.6628,-2.6655,-2.6687,-2.6709,-2.6745,-2.6754,-2.6775,-2.6775,-2.6783,-2.683,-2.6849,-2.6881,-2.6895,-2.6893,-2.6951,-2.6943,-2.693,-2.6903,-2.6955,-2.6977,-2.6985,-2.6871,-2.687,-2.6869,-2.6869,0,0,-2.6661,-2.6697,-2.6707,-2.6723,-2.6751,-2.6777,-2.6814,-2.6847,-2.6866,-2.689,-2.6921,-2.6967,-2.6956,-2.6974,-2.6975,-2.7002,-2.7055,-2.6986,-2.6987,-2.6998,-2.7121,-2.713,-2.714,-2.705,-2.7052,-2.7053,-2.7119,0,-2.6718,-2.6783,-2.6788,-2.6847,-2.6878,-2.6872,-2.6905,-2.6927,-2.6937,-2.6966,-2.6977,-2.701,-2.6992,-2.7004,-2.703,-2.7043,-2.7079,-2.7038,-2.708,-2.7082,-2.7074,-2.7151,-2.716,-2.7221,-2.7128,-2.7129,-2.713,0,-2.6792,-2.682,-2.6882,-2.6909,-2.6922,-2.6951,-2.6983,-2.701,-2.7036,-2.7042,-2.7064,-2.7063,-2.7103,-2.7077,-2.7133,-2.7105,-2.7123,-2.7132,-2.7135,-2.7138,-2.7108,-2.7156,-2.724,-2.725,-2.7143,-2.7142,-2.7141,0,-2.6835,-2.6887,-2.6932,-2.6946,-2.6977,-2.6999,-2.7013,-2.7037,-2.7057,-2.7086,-2.7099,-2.7132,-2.715,-2.7176,-2.7184,-2.7164,-2.724,-2.7215,-2.7247,-2.7247,-2.7261,-2.726,-2.7349,-2.7274,-2.7274,-2.7274,-2.7274,0,-2.6897,-2.6936,-2.6952,-2.6979,-2.7023,-2.7029,-2.7073,-2.7086,-2.7108,-2.7139,-2.7137,-2.7166,-2.7175,-2.7207,-2.7214,-2.726,-2.7268,-2.7274,-2.7275,-2.7274,-2.7273,-2.7285,-2.7281,-2.7277,-2.7276,-2.7276,-2.7275,0,-2.6951,-2.6963,-2.7011,-2.7039,-2.7047,-2.7078,-2.7102,-2.7129,-2.714,-2.718,-2.7189,-2.7207,-2.7244,-2.7255,-2.73,-2.7305,-2.7359,-2.7356,-2.735,-2.735,-2.7381,-2.7378,-2.748,-2.7494,-2.7411,-2.7411,-2.7412,0,-2.6989,-2.7019,-2.705,-2.7071,-2.7087,-2.712,-2.7141,-2.715,-2.7173,-2.7206,-2.723,-2.7267,-2.7297,-2.7357,-2.7374,-2.7409,-2.7407,-2.7441,-2.7412,-2.741,-2.7408,-2.7406,-2.7409,-2.7445,-2.7446,-2.7447,-2.7447,0,-2.7057,-2.7062,-2.7093,-2.7127,-2.7153,-2.718,-2.7206,-2.7223,-2.7236,-2.7262,-2.73,-2.7324,-2.7371,-2.7408,-2.7444,-2.746,-2.7456,-2.7457,-2.7466,-2.7464,-2.7459,-2.7463,-2.7364,-2.7454,-2.7453,-2.7453,-2.7452,-2.7452,-2.7104,-2.7131,-2.7158,-2.7193,-2.7214,-2.724,-2.7267,-2.7283,-2.7315,-2.7354,-2.7358,-2.74,-2.7428,-2.7476,-2.7494,-2.7528,-2.7518,-2.7531,-2.7535,-2.7538,-2.754,-2.7455,-2.7534,-2.7534,-2.7534,-2.7534,-2.7534,0,-2.7171,-2.7189,-2.7222,-2.7259,-2.7288,-2.7283,-2.7313,-2.7337,-2.7374,-2.7401,-2.7431,-2.7476,-2.7513,-2.7535,-2.7572,-2.7595,-2.7595,-2.7605,-2.7603,-2.7607,-2.7546,-2.7535,-2.7605,-2.7605,-2.7605,-2.7605,-2.7605,-2.7605,-2.721,-2.7256,-2.7265,-2.7322,-2.734,-2.7381,-2.7399,-2.7423,-2.7445,-2.7495,-2.7527,-2.7541,-2.7566,-2.7606,-2.764,-2.7646,-2.766,-2.7671,-2.7676,-2.7618,-2.7611,-2.7604,-2.7593,-2.7674,-2.7674,-2.7733,-2.7734,-2.7734]},{"header":{"parameterUnit":"m.s-1","parameterCategory":1,"la1":30.2991,"la2":30.254,"lo1":-89.0895,"lo2":-89.0444,"dy":0.0017,"dx":0.0017,"nx":28,"ny":28,"refTime":"2023-10-26T21:00:00:Z","depth":0,"parameterNumber":3,"parameterNumberName":"V-component_of_WINDS"},"data":[0,0,0,0,0,0,0,0,0,0,0,0,0,0,0,0,0,0,0,0,0,0,0,0,0,0,0,0,0,0,0,0,0,0,0,0,0,0,0,0,0,0,0,0,0,0,0,0,0,0,0,0,0,0,0,0,0,0,1.6858,1.6858,0,1.6883,1.6883,1.6884,1.6957,1.6959,1.6961,1.6962,1.6985,1.6984,1.6983,0,0,0,0,0,0,0,0,0,0,0,0,0,1.6873,1.6872,1.6858,1.6858,1.6858,1.6883,1.6883,1.6884,1.6957,1.6959,1.6961,1.6963,1.6985,1.6984,1.6983,0,0,0,0,0,0,0,0,0,0,0,0,0,1.6879,1.6872,1.6858,1.6898,1.6902,1.6883,1.6883,1.6884,1.6957,1.6959,1.6962,1.6964,1.6986,1.6984,1.6983,1.6926,0,0,1.6979,1.6978,0,0,0,0,0,0,0,0,1.6878,1.6878,1.6892,1.6895,1.69,1.692,1.6897,1.6898,1.6956,1.6936,1.6962,1.6965,1.6961,1.6962,1.6961,1.6927,1.6928,1.6979,1.6978,1.6977,1.6977,0,0,0,0,0,0,0,1.6878,1.6877,1.6868,1.6892,1.6897,1.6915,1.6918,1.6898,1.6934,1.6938,1.6943,1.6945,1.6964,1.6962,1.6962,1.6929,1.6979,1.6978,1.6977,1.6976,1.6852,1.6849,0,0,0,0,0,0,1.6872,1.6877,1.6867,1.6869,1.6895,1.6913,1.6917,1.6911,1.6935,1.6941,1.6943,1.6949,1.6963,1.6964,1.6963,1.69,1.6977,1.6976,1.6975,1.6854,1.6851,1.6849,0,0,0,0,0,0,1.6872,1.687,1.6866,1.6874,1.6875,1.691,1.6903,1.691,1.6909,1.6939,1.6946,1.6935,1.6965,1.6965,1.6936,1.6902,1.6976,1.6974,1.6857,1.6853,1.685,1.6771,0,0,0,0,0,0,1.6872,1.687,1.6848,1.6873,1.6874,1.6837,1.69,1.6909,1.6907,1.6914,1.6933,1.6939,1.6967,1.6937,1.6934,1.6901,1.6973,1.686,1.6856,1.6851,1.6777,1.6765,1.6755,0,0,0,0,0,1.6872,1.6824,1.6847,1.6845,1.6848,1.6835,1.6836,1.6871,1.6903,1.6882,1.6902,1.6938,1.6906,1.6934,1.6931,1.6897,1.6863,1.6857,1.6851,1.6781,1.6767,1.6755,0,0,0,0,0,0,1.6792,1.6828,1.6853,1.6812,1.682,1.6848,1.6822,1.6854,1.6852,1.6859,1.6902,1.6905,1.687,1.6881,1.6911,1.6844,1.689,1.6884,1.6838,1.6825,1.6814,1.6812,1.6972,0,0,0,0,0,1.677,1.6757,1.6789,1.6749,1.6752,1.6786,1.6782,1.6808,1.6818,1.6822,1.684,1.6847,1.6839,1.6833,1.6827,1.6779,1.6785,1.6755,1.6744,1.6735,1.6728,1.6705,1.6693,1.683,1.683,1.683,0,0,1.6723,1.6741,1.673,1.6734,1.6743,1.6729,1.6789,1.677,1.676,1.6819,1.6792,1.6806,1.6817,1.6779,1.6763,1.6787,1.6692,1.6727,1.672,1.6718,1.6698,1.6685,1.6674,1.6826,1.6827,1.6828,0,0,1.6631,1.6643,1.6612,1.6622,1.6636,1.666,1.6653,1.6676,1.6688,1.6662,1.6707,1.6695,1.668,1.6687,1.6689,1.6603,1.6636,1.66,1.6542,1.652,1.6509,1.65,1.647,1.6458,1.6594,1.6594,1.6594,0,1.6571,1.6552,1.6592,1.6572,1.6573,1.6627,1.6597,1.6603,1.6614,1.6614,1.6641,1.6625,1.6636,1.6601,1.6581,1.658,1.6573,1.6597,1.6507,1.6498,1.649,1.6462,1.6451,1.6589,1.659,1.659,1.6591,0,1.6477,1.6464,1.6437,1.6449,1.6447,1.6421,1.6458,1.6451,1.6478,1.6499,1.6473,1.649,1.6489,1.6483,1.6509,1.6452,1.6467,1.65,1.6547,1.6472,1.6446,1.6436,1.6583,1.6584,1.6586,1.6587,0,0,1.6332,1.637,1.6359,1.6366,1.6388,1.6378,1.6356,1.6357,1.635,1.6357,1.634,1.6328,1.6359,1.6361,1.6389,1.6369,1.6301,1.6405,1.6406,1.6385,1.6241,1.6216,1.6202,1.6324,1.6322,1.6321,1.624,0,1.6246,1.621,1.6248,1.6204,1.6193,1.6247,1.6228,1.6239,1.6259,1.6252,1.6274,1.6264,1.6307,1.6309,1.6292,1.6313,1.6273,1.632,1.6308,1.6307,1.6303,1.6189,1.6161,1.6084,1.6231,1.6229,1.6228,0,1.6139,1.6143,1.6099,1.6126,1.6123,1.6105,1.611,1.6103,1.6118,1.6134,1.6137,1.6172,1.6152,1.62,1.6174,1.6205,1.6203,1.6213,1.6211,1.6211,1.6262,1.6185,1.6061,1.6049,1.6212,1.6213,1.6215,0,1.6038,1.6033,1.6006,1.6011,1.6041,1.6028,1.604,1.6057,1.6057,1.6061,1.6061,1.6063,1.6064,1.6064,1.6099,1.613,1.6069,1.6119,1.6082,1.6081,1.6065,1.6066,1.5938,1.6065,1.6065,1.6065,1.6065,0,1.5936,1.5907,1.5962,1.5945,1.5915,1.5959,1.5928,1.5946,1.5961,1.595,1.5996,1.5984,1.603,1.6023,1.605,1.6026,1.6025,1.6038,1.6045,1.6033,1.6032,1.6032,1.6038,1.6062,1.6063,1.6063,1.6064,0,1.5818,1.5853,1.5828,1.5861,1.5868,1.5845,1.5873,1.5859,1.5883,1.5868,1.5867,1.5904,1.5899,1.5934,1.5934,1.5953,1.5915,1.5932,1.591,1.5915,1.5876,1.5879,1.5744,1.5729,1.5865,1.5863,1.5862,0,1.575,1.573,1.5761,1.5757,1.5768,1.5761,1.5761,1.5804,1.5802,1.582,1.5804,1.5803,1.5804,1.5793,1.582,1.5822,1.5838,1.5791,1.5839,1.5828,1.5838,1.5839,1.5837,1.578,1.5779,1.5777,1.5776,0,1.5627,1.5646,1.5645,1.5651,1.565,1.5656,1.5665,1.566,1.5707,1.5703,1.5699,1.57,1.5702,1.5701,1.5708,1.572,1.5756,1.5762,1.5753,1.574,1.5729,1.5735,1.5883,1.5764,1.5765,1.5766,1.5767,1.5767,1.5532,1.5517,1.5538,1.5536,1.5548,1.5556,1.5546,1.557,1.5568,1.5573,1.5599,1.5591,1.5609,1.5623,1.5632,1.5627,1.5649,1.5637,1.5634,1.563,1.5623,1.5731,1.5628,1.5628,1.5629,1.5629,1.5629,0,1.5411,1.5428,1.5426,1.5439,1.5437,1.5474,1.5486,1.5483,1.5475,1.5489,1.5491,1.5487,1.5487,1.5515,1.5518,1.5509,1.5525,1.5508,1.5509,1.5511,1.5602,1.5609,1.5495,1.5495,1.5495,1.5495,1.5495,1.5495,1.5348,1.5326,1.5348,1.5332,1.5349,1.5343,1.5347,1.5355,1.5367,1.5362,1.5362,1.5381,1.5402,1.5408,1.5409,1.5418,1.5417,1.5394,1.5408,1.5492,1.5505,1.5517,1.5524,1.5393,1.5393,1.5317,1.5317,1.5316]}]]